Weather History for Menominee, MI

Change the Weather History Date:

Sunday, October 6, 2013

  Actual Average Record
Temperature  
Mean Temperature 58 °F -  
Max Temperature 66 °F 61 °F 89 °F (1963)
Min Temperature 50 °F 42 °F 25 °F (1952)
Degree Days  
Heating Degree Days 8    
Growing Degree Days 8 (Base 50)    
Moisture  
Dew Point 51 °F    
Average Humidity 77    
Maximum Humidity 100    
Minimum Humidity 55    
Precipitation  
Precipitation 0.04 in - - ()
Sea Level Pressure  
Sea Level Pressure 29.65 in    
Wind  
Wind Speed 6 mph (WSW)    
Max Wind Speed 10 mph    
Max Gust Speed 20 mph    
Visibility 10 miles    
Events      
Averages and records for this station are not official NWS values.
T = Trace of Precipitation, MM = Missing Value Source: NWS Daily Summary

Daily Weather History Graph

Daily Weather History Graph

Search for Another Location

Airport:

Trip Planner

Search our weather history database for the weather conditions in past years. The results will help you decide how hot, cold, wet, or windy it might be!

Date:

Astronomy

Oct. 06, 2013 Rise Set
Actual Time 6:55 AM CDT 6:21 PM CDT
Civil Twilight 6:25 AM CDT 6:50 PM CDT
Nautical Twilight 5:51 AM CDT 7:24 PM CDT
Astronomical Twilight 5:17 AM CDT 7:58 PM CDT
Moon 8:45 AM CDT (10/6) 7:13 PM CDT (10/6)
Length of Visible Light 12h 24m
Length of Day
11h 25m
Waxing Crescent, 3% of the Moon is Illuminated
Oct 6
Waxing Crescent
Oct 11
First Quarter
Oct 18
Full
Oct 26
Last Quarter
Nov 3
New

Hourly Weather History & Observations

Time (CDT) Temp. Dew Point Humidity Pressure Visibility Wind Dir Wind Speed Gust Speed Precip Events Conditions
12:15 AM 62.6 °F 60.8 °F 94% 29.73 in 10.0 mi East 8.1 mph - N/A   Overcast
12:35 AM 62.6 °F 60.8 °F 94% 29.73 in 10.0 mi SE 5.8 mph - N/A   Overcast
12:55 AM 62.6 °F 60.8 °F 94% 29.71 in 3.0 mi East 6.9 mph - N/A   Overcast
1:15 AM 64.4 °F 60.8 °F 88% 29.71 in 1.2 mi ESE 6.9 mph - N/A   Overcast
1:35 AM 62.6 °F 60.8 °F 94% 29.72 in 7.0 mi ESE 6.9 mph - N/A   Overcast
1:55 AM 64.4 °F 60.8 °F 88% 29.70 in 10.0 mi South 5.8 mph - N/A   Overcast
2:15 AM 62.6 °F 60.8 °F 94% 29.69 in 10.0 mi South 5.8 mph - N/A   Overcast
2:35 AM 64.4 °F 60.8 °F 88% 29.68 in 10.0 mi SE 6.9 mph - N/A   Overcast
2:55 AM 64.4 °F 60.8 °F 88% 29.67 in 10.0 mi South 8.1 mph - N/A   Overcast
3:15 AM 60.8 °F 60.8 °F 100% 29.67 in 10.0 mi South 8.1 mph - N/A   Overcast
3:35 AM 62.6 °F 62.6 °F 100% 29.67 in 10.0 mi South 6.9 mph - N/A   Overcast
3:55 AM 62.6 °F 62.6 °F 100% 29.66 in 8.0 mi South 8.1 mph - N/A   Overcast
4:15 AM 62.6 °F 62.6 °F 100% 29.66 in 5.0 mi SSW 4.6 mph - N/A   Overcast
4:35 AM 62.6 °F 60.8 °F 94% 29.65 in 10.0 mi WSW 6.9 mph - N/A   Overcast
4:55 AM 62.6 °F 59.0 °F 88% 29.64 in 10.0 mi Calm Calm - N/A   Overcast
5:15 AM 60.8 °F 57.2 °F 88% 29.64 in 10.0 mi Calm Calm - N/A   Mostly Cloudy
5:35 AM 60.8 °F 57.2 °F 88% 29.65 in 9.0 mi SSW 3.5 mph - N/A   Overcast
5:55 AM 60.8 °F 57.2 °F 88% 29.66 in 10.0 mi WSW 5.8 mph - N/A   Overcast
6:15 AM 59.0 °F 57.2 °F 94% 29.66 in 10.0 mi WSW 5.8 mph - N/A   Overcast
6:35 AM 60.8 °F 57.2 °F 88% 29.65 in 10.0 mi Calm Calm - N/A   Overcast
6:55 AM 60.8 °F 57.2 °F 88% 29.65 in 10.0 mi West 4.6 mph - 0.01 in   Overcast
7:15 AM 59.0 °F 57.2 °F 94% 29.66 in 8.0 mi SW 6.9 mph - N/A   Overcast
7:35 AM 57.2 °F 55.4 °F 94% 29.65 in 10.0 mi WSW 3.5 mph - 0.01 in   Overcast
7:55 AM 57.2 °F 55.4 °F 94% 29.67 in 10.0 mi WSW 5.8 mph - 0.01 in   Overcast
8:15 AM 59.0 °F 55.4 °F 88% 29.67 in 9.0 mi WSW 4.6 mph - N/A   Overcast
8:35 AM 59.0 °F 55.4 °F 88% 29.67 in 10.0 mi West 5.8 mph - 0.01 in   Overcast
8:55 AM 57.2 °F 53.6 °F 88% 29.67 in 8.0 mi WSW 8.1 mph - 0.01 in   Overcast
9:15 AM 57.2 °F 53.6 °F 88% 29.66 in 10.0 mi West 4.6 mph - N/A   Overcast
9:35 AM 55.4 °F 53.6 °F 94% 29.66 in 10.0 mi West 3.5 mph - N/A   Overcast
9:55 AM 55.4 °F 53.6 °F 94% 29.66 in 10.0 mi WSW 8.1 mph - N/A   Overcast
10:15 AM 55.4 °F 53.6 °F 94% 29.66 in 10.0 mi West 4.6 mph - N/A   Overcast
10:35 AM 57.2 °F 55.4 °F 94% 29.65 in 10.0 mi West 4.6 mph - N/A   Mostly Cloudy
10:55 AM 55.4 °F 53.6 °F 94% 29.66 in 10.0 mi WSW 5.8 mph - N/A   Overcast
11:15 AM 55.4 °F 53.6 °F 94% 29.66 in 10.0 mi WSW 5.8 mph - N/A   Overcast
11:35 AM 57.2 °F 51.8 °F 82% 29.65 in 10.0 mi West 6.9 mph - N/A   Overcast
11:55 AM 57.2 °F 51.8 °F 82% 29.65 in 10.0 mi West 4.6 mph - N/A   Overcast
12:15 PM 60.8 °F 48.2 °F 63% 29.65 in 10.0 mi West 10.4 mph 17.3 mph N/A   Partly Cloudy
12:35 PM 60.8 °F 48.2 °F 63% 29.65 in 10.0 mi West 8.1 mph 16.1 mph N/A   Clear
12:55 PM 60.8 °F 48.2 °F 63% 29.64 in 10.0 mi WNW 8.1 mph - N/A   Clear
1:15 PM 60.8 °F 48.2 °F 63% 29.64 in 10.0 mi WNW 9.2 mph 17.3 mph N/A   Scattered Clouds
1:35 PM 59.0 °F 46.4 °F 63% 29.63 in 10.0 mi WNW 9.2 mph - N/A   Scattered Clouds
1:55 PM 60.8 °F 46.4 °F 59% 29.63 in 10.0 mi West 9.2 mph - N/A   Clear
2:15 PM 62.6 °F 46.4 °F 55% 29.62 in 10.0 mi West 9.2 mph - N/A   Clear
2:35 PM 62.6 °F 46.4 °F 55% 29.62 in 10.0 mi WSW 8.1 mph - N/A   Clear
2:55 PM 62.6 °F 46.4 °F 55% 29.62 in 10.0 mi WSW 9.2 mph - 0.01 in   Partly Cloudy
3:15 PM 60.8 °F 44.6 °F 55% 29.63 in 10.0 mi WNW 5.8 mph 16.1 mph N/A   Scattered Clouds
3:35 PM 60.8 °F 44.6 °F 55% 29.62 in 10.0 mi West 6.9 mph - N/A   Mostly Cloudy
3:55 PM 60.8 °F 46.4 °F 59% 29.61 in 10.0 mi WNW 5.8 mph - N/A   Partly Cloudy
4:15 PM 60.8 °F 44.6 °F 55% 29.62 in 10.0 mi WNW 6.9 mph - N/A   Partly Cloudy
4:35 PM 60.8 °F 44.6 °F 55% 29.62 in 10.0 mi WNW 8.1 mph - N/A   Scattered Clouds
4:55 PM 60.8 °F 44.6 °F 55% 29.62 in 10.0 mi West 4.6 mph - N/A   Partly Cloudy
5:15 PM 60.8 °F 44.6 °F 55% 29.61 in 10.0 mi West 3.5 mph - N/A   Clear
5:35 PM 59.0 °F 44.6 °F 59% 29.61 in 10.0 mi West 3.5 mph - N/A   Clear
5:55 PM 59.0 °F 44.6 °F 59% 29.62 in 10.0 mi WSW 3.5 mph - N/A   Clear
6:15 PM 57.2 °F 44.6 °F 63% 29.63 in 10.0 mi WSW 5.8 mph - N/A   Clear
6:35 PM 55.4 °F 44.6 °F 67% 29.64 in 10.0 mi WSW 4.6 mph - N/A   Clear
6:55 PM 55.4 °F 42.8 °F 63% 29.63 in 10.0 mi West 3.5 mph - N/A   Mostly Cloudy
7:15 PM 55.4 °F 42.8 °F 63% 29.63 in 10.0 mi WSW 5.8 mph - N/A   Overcast
7:35 PM 55.4 °F 42.8 °F 63% 29.64 in 10.0 mi WSW 6.9 mph - N/A   Overcast
7:55 PM 53.6 °F 42.8 °F 67% 29.64 in 10.0 mi WSW 8.1 mph - N/A   Overcast
8:15 PM 53.6 °F 41.0 °F 62% 29.65 in 10.0 mi WSW 8.1 mph - N/A   Overcast
8:35 PM 53.6 °F 42.8 °F 67% 29.65 in 10.0 mi WSW 6.9 mph - N/A   Overcast
8:55 PM 53.6 °F 42.8 °F 67% 29.64 in 10.0 mi West 5.8 mph - N/A   Overcast
9:15 PM 53.6 °F 41.0 °F 62% 29.64 in 10.0 mi West 8.1 mph 19.6 mph N/A   Overcast
9:35 PM 53.6 °F 41.0 °F 62% 29.64 in 10.0 mi WNW 6.9 mph - N/A   Overcast
9:55 PM 53.6 °F 41.0 °F 62% 29.64 in 10.0 mi West 5.8 mph - N/A   Overcast
10:15 PM 51.8 °F 41.0 °F 67% 29.64 in 10.0 mi West 8.1 mph - N/A   Overcast
10:35 PM 53.6 °F 41.0 °F 62% 29.64 in 10.0 mi West 5.8 mph - N/A   Overcast
10:55 PM 51.8 °F 42.8 °F 71% 29.64 in 10.0 mi West 5.8 mph - N/A   Overcast
11:15 PM 51.8 °F 41.0 °F 67% 29.64 in 10.0 mi West 5.8 mph - N/A   Overcast
11:35 PM 51.8 °F 41.0 °F 67% 29.63 in 10.0 mi West 4.6 mph - N/A   Mostly Cloudy
11:55 PM 50.0 °F 42.8 °F 76% 29.63 in 10.0 mi WNW 5.8 mph - N/A   Mostly Cloudy